FENGYUN 1C DEB, 31898

Orbit data source: Space-Track

FENGYUN 1C DEB, 31898 is space debris in SSO originally from a launch on Mon, 10 May 1999 UTC launched from the Taiyaun Space Center, China (TSC). Fengyun 1C debris stems from the Chinese weather satellite Fengyun-1C, which was intentionally destroyed by a Chinese anti-satellite missile in 2007. This event dramatically increased the amount of space debris, with thousands of trackable fragments posing hazards to satellites and human spaceflight. The Fengyun 1C debris cloud has become a focal point in discussions about space sustainability and the need for international regulations to prevent the creation of new debris.

Loading next visibility...
Identifier
31898, 1999-025CKZ
Orbit
SSO
Country
Flag of CNCN / PRC
Related business
Manufacturer
Unknown
Mission
Spacecraft
Bus & Motor
Unknown
Mass
Unknown
Launch date (UTC)
1999-05-10 (27 years ago)
Launch vehicle
Unknown
Launch site
Taiyaun Space Center, China (TSC)
Object type
Payload
Rocket body
Debris
Shape & HBR
Unknown shape, 0.1 m
Radar Cross Section
Small (<0.1 m²)

Expand to show TLE details & history
Last TLE update: 1 week ago

TLE from 1 week ago
0 FENGYUN 1C DEB
1 31898U 99025CKZ 26245.48790060  .00002570  00000-0  36616-3 0  9996
2 31898  98.6741 132.5259 0139095 114.5234 247.0545 14.71340703695872
Epoch: 2026-09-02T11:42Z
TLE epoch observation values (Epoch: 2026-09-02T11:42:34.611Z)
Latitude
-0.00001°
Longitude
-24.75803°
Altitude
699.079 km
Speed
7.486 km/s
True Right ascension
08h 50m 06s
True Declination
0° 00' 00"
Sunlit
Object was in daylight at epoch
Visualization orbit readout
Latitude
Unknown
Longitude
Unknown
Altitude
Unknown
Speed
Unknown
Apparent Right ascension
Unknown
Apparent Declination
Unknown
Sunlit
N/A
Visualization observer readout
Local Sidereal Time
09:34:01
Azimuth
Unknown
Elevation
Unknown
Doppler factor
Unknown
Orbital elements
Apogee altitude
751.691 km
Perigee altitude
556.067 km
Semi-major axis
7,032.016 km
Eccentricity
0.01391
Inclination
98.6741°
RAAN
132.5259°
Arg. of periapsis
114.5234°
True anomaly
245.59675°
Mean anomaly
247.0545°
Eccentric anomaly
246.32462°
Mean motion
3.68064 °/min
Orbital period
97.81 mins
BSTAR
0.00036616
Loading maneuver chart data...
Computing Atmospheric mass density...
Loading historical data...
Loading historical data...
Loading historical data...
Loading historical data...
Loading historical data...
Loading historical data...
Loading historical data...

Documentation

Showing up to 5 results
|